Regional Weather Roundup
Issued by NWS Green Bay, WI

Home | Current Version | Previous Version | Graphics & Text | Print | Product List | Glossary Off
Versions: 1 2 3 4 5 6 7 8 9 10 11 12 13 14 15 16 17 18 19 20 21 22 23 24 25 26 27 28 29 30 31 32 33 34 35 36 37 38 39 40 41 42 43 44 45 46 47 48 49 50

000
ASUS43 KGRB 221601
RWRGRB

NORTH-CENTRAL AND NORTHEAST WISCONSIN REGIONAL WEATHER ROUNDUP
NATIONAL WEATHER SERVICE GREEN BAY WI
1100 AM CDT TUE AUG 22 2017

WIZ005-009-010>012-018-019-221700-
NORTH CENTRAL WISCONSIN

CITY           SKY/WX    TMP DP  RH WIND       PRES   REMARKS
IRONWOOD       PTSUNNY   62  53  72 W15G21    29.90R
MANITOWISH WTR NOT AVBL
ARBOR VITAE    NOT AVBL
EAGLE RIVER    NOT AVBL
LAND O LAKES   NOT AVBL
RHINELANDER    PTSUNNY   64  52  64 W10G23    29.90R
PHILLIPS       MOSUNNY   62  51  67 NW10G18   29.93R
ANTIGO         NOT AVBL
TOMAHAWK       NOT AVBL
MERRILL        NOT AVBL
$$

WIZ013-073-221700-
NORTHEAST WISCONSIN

CITY           SKY/WX    TMP DP  RH WIND       PRES   REMARKS
IRON MOUNTAIN  PTSUNNY   65  51  60 NW14      29.81S
MARINETTE      MOSUNNY   68  53  58 N15       29.82R
$$

WIZ017-030-035>037-045-221700-
CENTRAL WISCONSIN

CITY           SKY/WX    TMP DP  RH WIND       PRES   REMARKS
MEDFORD        NOT AVBL
WAUSAU         MOSUNNY   67  51  56 NW15G24   29.90R
MOSINEE        MOSUNNY   66  54  63 NW15G22   29.93R
MARSHFIELD     MOSUNNY   66  50  56 NW21G26   29.94R
WISC RAPIDS    MOSUNNY   70  54  56 NW16G25   29.94R
STEVENS POINT  NOT AVBL
WAUPACA        NOT AVBL
SHAWANO        NOT AVBL
CLINTONVILLE   NOT AVBL
WAUTOMA        PTSUNNY   68  54  60 NW15G22   29.91R
$$

WIZ038-039-048-051-221700-
FOX VALLEY

CITY           SKY/WX    TMP DP  RH WIND       PRES   REMARKS
NWS GREEN BAY  MOSUNNY   70  57  63 NW18G26   29.85R
APPLETON       PTSUNNY   70  48  46 NW21G26   29.86R
OSHKOSH        MOSUNNY   70  56  61 NW17G24   29.87R
FOND DU LAC    MOSUNNY   71  54  54 NW16G26   29.88R
$$

WIZ022-050-052-221700-
EAST CENTRAL WISCONSIN

CITY           SKY/WX    TMP DP  RH WIND       PRES   REMARKS
EPHRAIM        NOT AVBL
WASHINGTON ISL NOT AVBL
STURGEON BAY   NOT AVBL
MANITOWOC      NOT AVBL
SHEBOYGAN      MOSUNNY   72  62  71 N16G25    29.84R
$$

LMZ563-521-522-541>543-221700-
LAKESHORE

STATION/POSITION TIME  TEMP    WIND        PRES    VSBY  WAVE
                       AIR SEA DIR/SP/G                  HT/PER
                 (UTC) (F)     (DEG/KT/KT) (MB)    (MI)  (FT/S)
SHEBOYGAN LKSHOR 1500   71     300/ 13/ 21 1008.9R
KEWAUNEE LKSHORE 1530   68     320/ 10/ 19 1008.8R
NORTHPORT PIER   1540   67     310/ 16/ 23 1008.8R
N MID LAKE BUOY  1450   63 67  300/ 21/ 25 1007.4R         4/ 4
S GREEN BAY BUOY 1530   67 71  300/ 16/ 19 1009.7R
SISTER BAY LKSHO 1518   67     330/ 21/ 23   N/A
MENOMINEE LKSHOR 1530   67     310/ 13/ 18 1009.1R
$$




USA.gov is the U.S. government's official web portal to all federal, state and local government web resources and services.